TimeCDT,TemperatureF,Dew PointF,Humidity,Sea Level PressureIn,VisibilityMPH,Wind Direction,Wind SpeedMPH,Gust SpeedMPH,PrecipitationIn,Events,Conditions,WindDirDegrees,DateUTC
12:06 AM,33.8,30.2,87,29.65,4.0,East,16.1,-,N/A,,Mostly Cloudy,80,2013-04-08 05:06:00
12:16 AM,33.8,32.0,93,29.65,1.8,East,15.0,24.2,N/A,,Overcast,80,2013-04-08 05:16:00
12:52 AM,35.1,33.1,92,29.69,1.8,East,13.8,-,N/A,,Overcast,80,2013-04-08 05:52:00
1:52 AM,34.0,33.1,96,29.71,1.0,East,11.5,-,N/A,,Overcast,80,2013-04-08 06:52:00
2:25 AM,33.8,33.8,100,29.67,3.0,Variable,3.5,-,N/A,,Overcast,0,2013-04-08 07:25:00
2:52 AM,33.1,32.0,96,29.71,3.0,SSE,9.2,-,N/A,,Overcast,150,2013-04-08 07:52:00
3:36 AM,33.8,32.0,93,29.68,2.5,East,11.5,-,N/A,,Overcast,90,2013-04-08 08:36:00
3:47 AM,33.8,33.8,100,29.69,3.0,Calm,Calm,-,N/A,,Overcast,0,2013-04-08 08:47:00
3:52 AM,33.1,33.1,100,29.72,2.5,Variable,3.5,-,N/A,,Overcast,0,2013-04-08 08:52:00
4:05 AM,33.8,32.0,93,29.69,3.0,ENE,10.4,16.1,0.00,,Overcast,70,2013-04-08 09:05:00
4:39 AM,33.8,32.0,93,29.67,4.0,ENE,13.8,-,0.00,,Overcast,70,2013-04-08 09:39:00
4:52 AM,34.0,32.0,92,29.70,4.0,ENE,8.1,-,0.00,,Overcast,60,2013-04-08 09:52:00
5:52 AM,34.0,32.0,92,29.69,5.0,NE,17.3,-,N/A,,Overcast,50,2013-04-08 10:52:00
6:00 AM,33.8,32.0,93,29.66,5.0,ENE,16.1,-,N/A,,Overcast,60,2013-04-08 11:00:00
6:23 AM,33.8,32.0,93,29.65,6.0,ENE,15.0,24.2,N/A,,Scattered Clouds,60,2013-04-08 11:23:00
6:35 AM,33.8,32.0,93,29.65,6.0,ENE,17.3,-,N/A,,Mostly Cloudy,60,2013-04-08 11:35:00
6:52 AM,34.0,32.0,92,29.68,6.0,ENE,21.9,27.6,N/A,,Overcast,60,2013-04-08 11:52:00
7:52 AM,34.0,33.1,96,29.75,7.0,NE,6.9,-,N/A,,Overcast,50,2013-04-08 12:52:00
8:52 AM,34.0,30.9,89,29.76,10.0,ENE,17.3,23.0,N/A,,Overcast,60,2013-04-08 13:52:00
9:52 AM,35.1,30.9,85,29.81,10.0,ENE,11.5,-,N/A,,Overcast,60,2013-04-08 14:52:00
10:41 AM,35.6,30.2,81,29.83,10.0,NNE,10.4,-,N/A,,Overcast,30,2013-04-08 15:41:00
10:52 AM,35.1,30.9,85,29.88,10.0,NE,11.5,-,N/A,,Overcast,50,2013-04-08 15:52:00
11:50 AM,33.8,30.2,87,29.86,1.8,NE,13.8,-,0.00,Snow,Light Snow,40,2013-04-08 16:50:00
11:52 AM,34.0,30.0,85,29.91,1.5,NE,12.7,-,0.00,Snow,Light Snow,40,2013-04-08 16:52:00
12:40 PM,35.6,32.0,87,29.87,2.5,NE,18.4,24.2,0.03,Snow,Light Snow,50,2013-04-08 17:40:00
12:52 PM,34.0,32.0,92,29.91,2.5,NNE,20.7,26.5,0.03,Snow,Light Snow,30,2013-04-08 17:52:00
1:00 PM,33.8,30.2,87,29.87,2.0,NNE,19.6,27.6,0.00,Snow,Light Snow,30,2013-04-08 18:00:00
1:13 PM,33.8,30.2,87,29.87,4.0,NNE,25.3,29.9,0.00,Snow,Light Snow,30,2013-04-08 18:13:00
1:52 PM,30.9,28.9,92,29.96,10.0,NNE,19.6,28.8,0.00,,Overcast,20,2013-04-08 18:52:00
2:16 PM,30.2,26.6,86,29.92,10.0,NNE,20.7,29.9,N/A,,Overcast,20,2013-04-08 19:16:00
2:52 PM,28.9,25.0,85,30.01,10.0,NNE,25.3,33.4,N/A,,Overcast,20,2013-04-08 19:52:00
3:52 PM,28.0,23.0,81,30.05,10.0,North,21.9,31.1,N/A,,Overcast,10,2013-04-08 20:52:00
4:52 PM,26.1,19.9,78,30.06,10.0,North,24.2,33.4,0.00,,Overcast,10,2013-04-08 21:52:00
5:06 PM,26.6,19.4,74,30.00,10.0,North,21.9,31.1,0.00,,Overcast,10,2013-04-08 22:06:00
5:52 PM,26.1,19.9,78,30.07,10.0,NNE,18.4,31.1,0.00,,Overcast,20,2013-04-08 22:52:00
6:05 PM,24.8,19.4,80,30.01,10.0,North,23.0,35.7,N/A,,Overcast,10,2013-04-08 23:05:00
6:26 PM,24.8,19.4,80,30.02,10.0,North,27.6,32.2,N/A,,Overcast,10,2013-04-08 23:26:00
6:52 PM,24.1,18.0,77,30.11,10.0,North,24.2,32.2,N/A,,Overcast,10,2013-04-08 23:52:00
7:22 PM,23.0,17.6,80,30.06,10.0,North,21.9,31.1,N/A,,Overcast,10,2013-04-09 00:22:00
7:35 PM,23.0,17.6,80,30.07,10.0,NNE,23.0,32.2,N/A,,Overcast,20,2013-04-09 00:35:00
7:52 PM,21.9,16.0,78,30.14,10.0,North,25.3,31.1,N/A,,Overcast,10,2013-04-09 00:52:00
8:52 PM,21.0,14.0,74,30.18,6.0,North,19.6,32.2,0.00,Snow,Light Snow,10,2013-04-09 01:52:00
9:52 PM,19.9,12.0,71,30.23,10.0,North,18.4,32.2,0.00,,Overcast,10,2013-04-09 02:52:00
10:52 PM,19.9,12.0,71,30.25,10.0,North,21.9,31.1,N/A,,Overcast,10,2013-04-09 03:52:00
11:52 PM,19.0,12.0,74,30.24,10.0,NNE,18.4,31.1,N/A,,Overcast,20,2013-04-09 04:52:00